Date String (YYYY-MM-DD hh:mm:ss) UTC,Instrument flags,Ambient pressure (hPa),Sample flow (lpm),Bypass flow (lpm),Sample temperature (°C),Ambient temperature (°C),ASC tube jacket temperature (°C),LED temperature (°C),Box temperature (°C),Sample RH (%),Span deviation,Mass concentration (μg/m³),Mass concentration (μg/m³),Mass concentration (μg/m³)
DateTimeUTC,F1_M11,P_M11,Q1_M11,Q2_M11,T1_M11,T2_M11,T3_M11,T4_M11,T5_M11,U1_M11,ZSPAN_M11,X0_M11,X2_M11,X1_M11
2022-04-12 17:00:00,,0806.3,4.99,0.00,23.7,22.5,00.0,32.7,25.5,06.9,0000.0,0007.74,0002.70,0000.63
2022-04-12 17:01:00,,0806.3,5.01,0.00,23.7,22.5,00.0,32.7,25.5,06.9,0000.0,0007.69,0002.68,0000.65
2022-04-12 17:02:00,,0806.2,5.00,0.00,23.7,22.5,00.0,32.7,25.4,07.1,0000.0,0007.67,0002.83,0000.67
2022-04-12 17:03:00,,0806.3,4.99,0.00,23.6,22.5,00.0,32.7,25.4,06.9,0000.0,0007.94,0002.95,0000.67
2022-04-12 17:04:00,,0806.4,5.02,0.00,23.6,22.5,00.0,32.7,25.3,07.0,0000.0,0007.90,0002.96,0000.67
2022-04-12 17:05:00,,0806.4,4.99,0.00,23.6,22.5,00.0,32.7,25.3,07.2,0000.0,0008.16,0002.93,0000.66
2022-04-12 17:06:00,,0806.4,4.99,0.00,23.6,22.5,00.0,32.7,25.4,07.1,0000.0,0008.75,0002.97,0000.65
2022-04-12 17:07:00,,0806.4,4.99,0.00,23.6,22.5,00.0,32.6,25.3,07.1,0000.0,0008.74,0002.98,0000.65
2022-04-12 17:08:00,,0806.5,5.02,0.00,23.6,22.5,00.0,32.6,25.3,07.1,0000.0,0008.72,0002.94,0000.66
2022-04-12 17:09:00,,0806.4,4.99,0.00,23.6,22.5,00.0,32.6,25.2,07.2,0000.0,0008.67,0002.89,0000.65
2022-04-12 17:10:00,,0806.4,5.01,0.00,23.6,22.5,00.0,32.6,25.3,07.2,0000.0,0008.82,0002.99,0000.65
2022-04-12 17:11:00,,0806.4,5.00,0.00,23.5,22.4,00.0,32.6,25.2,07.2,0000.0,0008.89,0003.00,0000.62
2022-04-12 17:12:00,,0806.5,5.01,0.00,23.5,22.4,00.0,32.6,25.2,07.2,0000.0,0008.99,0003.10,0000.61
2022-04-12 17:13:00,,0806.5,5.01,0.00,23.5,22.4,00.0,32.6,25.2,07.2,0000.0,0009.18,0003.09,0000.60
2022-04-12 17:14:00,,0806.6,4.99,0.00,23.5,22.4,00.0,32.6,25.2,07.2,0000.0,0009.32,0003.01,0000.60
2022-04-12 17:15:00,,0806.7,5.00,0.00,23.5,22.4,00.0,32.6,25.3,07.3,0000.0,0009.45,0002.99,0000.60
2022-04-12 17:16:00,,0806.8,5.00,0.00,23.5,22.4,00.0,32.6,25.3,07.2,0000.0,0009.43,0003.01,0000.60
2022-04-12 17:17:00,,0806.9,5.00,0.00,23.5,22.4,00.0,32.6,25.3,07.3,0000.0,0008.45,0002.95,0000.59
2022-04-12 17:18:00,,0806.7,4.99,0.00,23.5,22.3,00.0,32.6,25.1,07.4,0000.0,0008.35,0002.91,0000.59
2022-04-12 17:19:00,,0806.7,5.00,0.00,23.5,22.3,00.0,32.6,25.2,07.3,0000.0,0008.36,0002.89,0000.59
2022-04-12 17:20:00,,0806.7,5.00,0.00,23.5,22.3,00.0,32.5,25.2,07.2,0000.0,0008.47,0002.88,0000.59
2022-04-12 17:21:00,,0806.6,5.01,0.00,23.5,22.3,00.0,32.5,25.2,07.4,0000.0,0008.85,0002.87,0000.57
2022-04-12 17:22:00,,0806.6,4.99,0.00,23.5,22.3,00.0,32.5,25.2,07.4,0000.0,0008.81,0002.84,0000.57
2022-04-12 17:23:00,,0806.7,5.00,0.00,23.5,22.3,00.0,32.5,25.2,07.2,0000.0,0008.64,0002.76,0000.57
2022-04-12 17:24:00,,0806.7,5.00,0.00,23.4,22.3,00.0,32.5,25.1,07.3,0000.0,0008.35,0002.68,0000.57
2022-04-12 17:25:00,,0806.8,5.00,0.00,23.4,22.3,00.0,32.5,25.1,07.3,0000.0,0008.30,0002.70,0000.56
2022-04-12 17:26:00,,0806.8,5.01,0.00,23.4,22.3,00.0,32.5,25.1,07.3,0000.0,0008.51,0002.71,0000.55
2022-04-12 17:27:00,,0806.8,4.98,0.00,23.4,22.3,00.0,32.5,25.1,07.3,0000.0,0009.06,0002.71,0000.55
2022-04-12 17:28:00,,0806.8,4.99,0.00,23.4,22.3,00.0,32.5,25.1,07.2,0000.0,0009.53,0002.74,0000.54
2022-04-12 17:29:00,,0806.7,5.01,0.00,23.4,22.3,00.0,32.5,25.1,07.1,0000.0,0009.78,0002.82,0000.54
2022-04-12 17:30:00,,0806.7,5.00,0.00,23.3,22.2,00.0,32.5,25.0,07.2,0000.0,0009.86,0002.76,0000.54
2022-04-12 17:31:00,,0806.8,4.99,0.00,23.3,22.2,00.0,32.4,25.1,07.6,0000.0,0010.40,0002.80,0000.54
2022-04-12 17:32:00,,0806.9,4.99,0.00,23.3,22.2,00.0,32.4,25.0,07.7,0000.0,0010.07,0002.78,0000.54
2022-04-12 17:33:00,,0806.9,5.01,0.00,23.3,22.2,00.0,32.4,25.0,07.7,0000.0,0010.16,0002.85,0000.54
2022-04-12 17:34:00,,0806.8,5.00,0.00,23.3,22.2,00.0,32.4,25.0,07.6,0000.0,0010.29,0002.93,0000.54
2022-04-12 17:35:00,,0806.7,5.00,0.00,23.3,22.2,00.0,32.4,25.0,07.4,0000.0,0010.40,0002.99,0000.55
2022-04-12 17:36:00,,0806.7,5.01,0.00,23.3,22.1,00.0,32.4,25.0,07.5,0000.0,0010.32,0003.04,0000.56
2022-04-12 17:37:00,,0806.8,5.00,0.00,23.3,22.1,00.0,32.4,25.0,07.6,0000.0,0010.86,0003.03,0000.56
2022-04-12 17:38:00,,0806.9,5.01,0.00,23.3,22.1,00.0,32.4,25.0,07.6,0000.0,0010.30,0003.00,0000.56
2022-04-12 17:39:00,,0807.0,4.99,0.00,23.3,22.1,00.0,32.4,25.0,07.5,0000.0,0009.69,0002.95,0000.57
2022-04-12 17:40:00,,0807.0,5.02,0.00,23.2,22.1,00.0,32.3,24.9,07.7,0000.0,0009.40,0002.82,0000.57
2022-04-12 17:41:00,,0807.0,4.98,0.00,23.2,22.1,00.0,32.3,24.9,07.5,0000.0,0009.44,0002.88,0000.57
2022-04-12 17:42:00,,0807.0,5.00,0.00,23.2,22.1,00.0,32.3,24.9,07.4,0000.0,0008.84,0002.83,0000.57
2022-04-12 17:43:00,,0807.1,5.01,0.00,23.2,22.1,00.0,32.3,24.9,07.2,0000.0,0008.72,0002.80,0000.58
2022-04-12 17:44:00,,0807.1,5.00,0.00,23.2,22.1,00.0,32.3,24.9,07.2,0000.0,0008.54,0002.65,0000.58
2022-04-12 17:45:00,,0806.9,5.01,0.00,23.2,22.1,00.0,32.3,24.9,07.5,0000.0,0008.47,0002.62,0000.58
2022-04-12 17:46:00,,0806.8,4.99,0.00,23.1,22.1,00.0,32.3,24.8,07.4,0000.0,0008.57,0002.63,0000.59
2022-04-12 17:47:00,,0806.8,4.99,0.00,23.1,22.1,00.0,32.3,24.8,07.5,0000.0,0008.58,0002.59,0000.59
2022-04-12 17:48:00,,0806.9,5.00,0.00,23.1,22.1,00.0,32.3,24.8,07.7,0000.0,0007.44,0002.47,0000.58
2022-04-12 17:49:00,,0807.0,4.99,0.00,23.1,22.1,00.0,32.2,24.8,07.7,0000.0,0007.42,0002.49,0000.58
2022-04-12 17:50:00,,0807.0,4.99,0.00,23.1,22.1,00.0,32.2,24.8,07.7,0000.0,0007.49,0002.52,0000.58
2022-04-12 17:51:00,,0807.0,5.00,0.00,23.1,22.1,00.0,32.2,24.8,07.6,0000.0,0008.10,0002.60,0000.60
2022-04-12 17:52:00,,0806.9,5.01,0.00,23.1,22.2,00.0,32.2,24.8,07.4,0000.0,0007.92,0002.57,0000.60
2022-04-12 17:53:00,,0807.0,5.00,0.00,23.1,22.2,00.0,32.2,24.8,07.3,0000.0,0007.96,0002.65,0000.61
2022-04-12 17:54:00,,0807.0,5.00,0.00,23.1,22.1,00.0,32.2,24.8,07.3,0000.0,0007.97,0002.73,0000.63
2022-04-12 17:55:00,,0806.9,4.99,0.00,23.1,22.0,00.0,32.2,24.8,07.3,0000.0,0008.01,0002.72,0000.63
2022-04-12 17:56:00,,0806.9,4.99,0.00,23.1,22.0,00.0,32.2,24.8,07.2,0000.0,0008.16,0002.80,0000.64
2022-04-12 17:57:00,,0807.0,5.01,0.00,23.1,22.0,00.0,32.2,24.8,07.2,0000.0,0008.36,0002.92,0000.66
2022-04-12 17:58:00,,0807.2,4.98,0.00,23.1,22.0,00.0,32.2,24.9,07.0,0000.0,0008.54,0003.03,0000.67
2022-04-12 17:59:00,,0807.2,5.00,0.00,23.2,22.0,00.0,32.2,24.9,07.2,0000.0,0008.65,0003.11,0000.70
